{"data":{"norad_id":37826,"intl_designator":"2011-054A","name":"QUETZSAT 1","alt_names":[],"object_type":"PAYLOAD","status":"ACTIVE","operator":null,"country":"MEX","launch_date":"2011-09-29","launch_site_code":"TYMSC","launch_vehicle":null,"mission":null,"orbit_class":"UNKNOWN","rcs_meters":219.4788,"size_class":null,"mass_kg":null,"dimensions":null,"purposes":["comms"],"wikipedia_slug":null,"has_3d_model":false,"image_url":null,"decayed_at":null,"tle_current":{"epoch":"2026-09-20T04:24:58.026816Z","epoch_age_seconds":41793,"freshness":"FRESH","line1":"1 37826U 11054A   26263.18400494 -.00000246  00000+0  00000+0 0  9997","line2":"2 37826   0.0163 263.7235 0002672 271.1824 173.4334  1.00272914 50824","mean_motion":1.00272914,"eccentricity":0.0002672,"inclination_deg":0.0163,"raan_deg":263.7235,"arg_perigee_deg":271.1824,"mean_anomaly_deg":173.4334,"bstar":0,"rev_number":5082,"period_min":1436.0807346239,"perigee_km":35775.012132664,"apogee_km":35797.544796289,"semimajor_km":42164.415464476,"source":"CELESTRAK","updated_at":"2026-09-20T09:00:35.640267Z"}}}